Location: Unspecified
(0.0000°N, 0.0000°E)
Time: 01:26:19
(UTC+00:00)

deb Explorer IX - Pass Details

Date: 26 November 2019
Orbit: 546 x 1104 km, 38.8° (Epoch: 11 December)

Event Time Altitude Azimuth Distance (km) Brightness Sun altitude
Exits shadow 05:05:14 - 337° (NNW) 3,012 ? -9.8°
Reaches altitude 10° 05:07:56 10° 352° (N) 2,160 ? -9.1°
Maximum altitude 05:11:23 19° 37° (NE) 1,559 ? -8.3°
Drops below altitude 10° 05:14:33 10° 81° (E) 1,959 ? -7.6°
Sets 05:17:18 0° 100° (E) 2,794 ? -7.0°
